Time,TemperatureF,DewpointF,PressureIn,WindDirection,WindDirectionDegrees,WindSpeedMPH,WindSpeedGustMPH,Humidity,HourlyPrecipIn,Conditions,Clouds,dailyrainin,SoftwareType,DateUTC
2013-01-02 00:09:00,52.9,45.2,30.16,South,187,2.0,7.0,75,0.00,CLR,,0.00,WeatherDisplay:10.37,2013-01-01 23:09:00,
2013-01-02 08:39:00,51.3,47.2,30.15,SE,146,6.0,13.0,86,0.00,CLR,,0.09,WeatherDisplay:10.37,2013-01-02 07:39:00,
2013-01-02 08:49:00,51.7,47.3,30.15,SE,145,5.0,12.0,85,0.00,CLR,,0.09,WeatherDisplay:10.37,2013-01-02 07:49:00,
2013-01-02 08:59:00,51.9,46.9,30.15,SSE,151,7.0,14.0,83,0.00,CLR,,0.09,WeatherDisplay:10.37,2013-01-02 07:59:00,
2013-01-02 09:09:00,52.1,47.1,30.16,SSE,155,7.0,14.0,83,0.00,CLR,,0.09,WeatherDisplay:10.37,2013-01-02 08:09:00,
2013-01-02 09:19:00,52.1,47.1,30.16,SSE,150,5.0,12.0,83,0.00,CLR,,0.09,WeatherDisplay:10.37,2013-01-02 08:19:00,
2013-01-02 09:29:00,52.1,47.1,30.16,SE,143,7.0,10.0,83,0.00,CLR,,0.09,WeatherDisplay:10.37,2013-01-02 08:29:00,
2013-01-02 09:39:00,52.1,47.4,30.17,SSE,158,5.0,9.0,84,0.01,RA,,0.10,WeatherDisplay:10.37,2013-01-02 08:39:00,
2013-01-02 09:49:00,51.8,47.4,30.17,South,169,2.0,10.0,85,0.00,RA,,0.10,WeatherDisplay:10.37,2013-01-02 08:49:00,
2013-01-02 10:00:00,51.7,47.6,30.17,SE,135,5.0,9.0,86,0.02,RA,,0.12,WeatherDisplay:10.37,2013-01-02 09:00:00,
2013-01-02 10:10:00,51.6,47.9,30.17,SE,139,3.0,7.0,87,0.00,RA,,0.12,WeatherDisplay:10.37,2013-01-02 09:10:00,
2013-01-02 10:20:00,51.6,47.9,30.17,SE,139,3.0,7.0,87,0.02,RA,,0.13,WeatherDisplay:10.37,2013-01-02 09:20:00,
2013-01-02 10:30:00,51.5,48.1,30.18,South,184,6.0,7.0,88,0.02,RA,,0.15,WeatherDisplay:10.37,2013-01-02 09:30:00,
2013-01-02 10:40:00,51.4,48.3,30.18,SSW,198,0.0,4.0,89,0.05,RA,,0.20,WeatherDisplay:10.37,2013-01-02 09:40:00,
2013-01-02 10:50:00,50.7,47.3,30.17,South,191,2.0,8.0,88,0.09,RA,,0.29,WeatherDisplay:10.37,2013-01-02 09:50:00,
2013-01-02 11:00:00,50.7,46.7,30.17,SW,228,2.0,6.0,86,0.02,RA,,0.31,WeatherDisplay:10.37,2013-01-02 10:00:00,
2013-01-02 11:10:00,51.5,47.8,30.17,SSW,192,6.0,12.0,87,0.00,RA,,0.31,WeatherDisplay:10.37,2013-01-02 10:10:00,
2013-01-02 11:20:00,51.7,48.0,30.17,South,187,2.0,8.0,87,0.00,RA,,0.31,WeatherDisplay:10.37,2013-01-02 10:20:00,
2013-01-02 11:30:00,51.6,48.2,30.16,ESE,121,8.0,15.0,88,0.00,CLR,,0.31,WeatherDisplay:10.37,2013-01-02 10:30:00,
2013-01-02 11:40:00,52.2,48.4,30.16,SE,145,7.0,15.0,87,0.00,CLR,,0.31,WeatherDisplay:10.37,2013-01-02 10:40:00,
2013-01-02 11:50:00,52.4,48.3,30.16,SSE,159,6.0,14.0,86,0.00,CLR,,0.31,WeatherDisplay:10.37,2013-01-02 10:50:00,
2013-01-02 12:00:00,52.4,48.3,30.16,SSE,166,9.0,15.0,86,0.00,CLR,,0.31,WeatherDisplay:10.37,2013-01-02 11:00:00,
2013-01-02 12:10:00,52.4,48.6,30.16,SSE,154,7.0,18.0,87,0.01,RA,,0.31,WeatherDisplay:10.37,2013-01-02 11:10:00,
2013-01-02 12:20:00,52.9,49.1,30.15,SSE,165,5.0,14.0,87,0.00,RA,,0.31,WeatherDisplay:10.37,2013-01-02 11:20:00,
2013-01-02 12:30:00,53.1,49.3,30.15,SSE,164,6.0,12.0,87,0.00,RA,,0.31,WeatherDisplay:10.37,2013-01-02 11:30:00,
2013-01-02 12:40:00,53.0,49.2,30.15,SE,145,8.0,12.0,87,0.00,CLR,,0.31,WeatherDisplay:10.37,2013-01-02 11:40:00,
2013-01-02 12:50:00,52.5,49.0,30.15,SSE,158,8.0,14.0,88,0.05,RA,,0.36,WeatherDisplay:10.37,2013-01-02 11:50:00,
2013-01-02 13:00:00,52.1,49.3,30.14,SSE,163,3.0,13.0,90,0.02,RA,,0.39,WeatherDisplay:10.37,2013-01-02 12:00:00,
2013-01-02 13:10:00,52.2,49.7,30.14,South,170,5.0,12.0,91,0.01,RA,,0.39,WeatherDisplay:10.37,2013-01-02 12:10:00,
2013-01-02 13:20:00,52.2,47.8,30.14,SSE,167,9.0,20.0,85,0.00,RA,,0.39,WeatherDisplay:10.37,2013-01-02 12:20:00,
2013-01-02 13:30:00,51.8,46.8,30.14,South,171,9.0,20.0,83,0.00,RA,,0.39,WeatherDisplay:10.37,2013-01-02 12:30:00,
2013-01-02 13:40:00,51.5,45.9,30.15,South,174,5.0,13.0,81,0.00,CLR,,0.39,WeatherDisplay:10.37,2013-01-02 12:40:00,
2013-01-02 13:50:00,51.7,45.4,30.14,SSE,160,2.0,8.0,79,0.00,CLR,,0.39,WeatherDisplay:10.37,2013-01-02 12:50:00,
2013-01-02 14:00:00,52.5,46.1,30.14,SSE,165,5.0,6.0,79,0.00,CLR,,0.39,WeatherDisplay:10.37,2013-01-02 13:00:00,
2013-01-02 14:10:00,53.0,46.7,30.14,South,185,6.0,15.0,79,0.00,CLR,,0.39,WeatherDisplay:10.37,2013-01-02 13:10:00,
2013-01-02 14:20:00,53.4,47.4,30.15,South,179,5.0,10.0,80,0.00,CLR,,0.39,WeatherDisplay:10.37,2013-01-02 13:20:00,
2013-01-02 14:30:00,53.3,47.6,30.15,South,170,6.0,12.0,81,0.00,CLR,,0.39,WeatherDisplay:10.37,2013-01-02 13:30:00,
2013-01-02 14:40:00,53.0,48.0,30.15,South,174,8.0,15.0,83,0.00,CLR,,0.39,WeatherDisplay:10.37,2013-01-02 13:40:00,
2013-01-02 14:50:00,51.8,47.2,30.16,South,173,9.0,21.0,84,0.02,RA,,0.41,WeatherDisplay:10.37,2013-01-02 13:50:00,
2013-01-02 15:00:00,51.5,44.9,30.16,SSE,166,5.0,16.0,78,0.01,RA,,0.42,WeatherDisplay:10.37,2013-01-02 14:00:00,
2013-01-02 15:10:00,51.4,46.4,30.16,South,170,2.0,6.0,83,0.00,RA,,0.42,WeatherDisplay:10.37,2013-01-02 14:10:00,
2013-01-02 15:20:00,51.6,46.6,30.16,South,187,5.0,8.0,83,0.00,RA,,0.42,WeatherDisplay:10.37,2013-01-02 14:20:00,
2013-01-02 15:30:00,52.0,47.0,30.16,SSW,203,1.0,5.0,83,0.01,RA,,0.43,WeatherDisplay:10.37,2013-01-02 14:30:00,
2013-01-02 15:40:00,52.0,47.3,30.16,SSE,168,5.0,8.0,84,0.00,RA,,0.43,WeatherDisplay:10.37,2013-01-02 14:40:00,
2013-01-02 15:50:00,51.8,47.7,30.17,SSE,160,2.0,9.0,86,0.00,RA,,0.43,WeatherDisplay:10.37,2013-01-02 14:50:00,
2013-01-02 16:00:00,51.8,48.4,30.17,SSE,161,3.0,5.0,88,0.00,CLR,,0.43,WeatherDisplay:10.37,2013-01-02 15:00:00,
2013-01-02 16:10:00,51.9,47.8,30.17,SE,142,2.0,5.0,86,0.00,CLR,,0.43,WeatherDisplay:10.37,2013-01-02 15:10:00,
2013-01-02 16:20:00,52.3,46.9,30.17,SSE,153,7.0,9.0,82,0.00,CLR,,0.43,WeatherDisplay:10.37,2013-01-02 15:20:00,
2013-01-02 16:30:00,52.0,47.7,30.18,ESE,123,5.0,8.0,85,0.00,CLR,,0.43,WeatherDisplay:10.37,2013-01-02 15:30:00,
2013-01-02 16:40:00,51.9,48.2,30.18,SE,143,6.0,10.0,87,0.00,CLR,,0.43,WeatherDisplay:10.37,2013-01-02 15:40:00,
2013-01-02 16:50:00,51.7,47.9,30.18,ESE,114,7.0,9.0,87,0.00,CLR,,0.43,WeatherDisplay:10.37,2013-01-02 15:50:00,
2013-01-02 17:00:00,51.5,47.7,30.19,ESE,118,5.0,12.0,87,0.00,CLR,,0.43,WeatherDisplay:10.37,2013-01-02 16:00:00,
2013-01-02 17:10:00,51.3,47.6,30.19,ESE,116,5.0,12.0,87,0.00,CLR,,0.43,WeatherDisplay:10.37,2013-01-02 16:10:00,
2013-01-02 17:20:00,51.4,48.0,30.20,SE,125,2.0,6.0,88,0.00,CLR,,0.43,WeatherDisplay:10.37,2013-01-02 16:20:00,
2013-01-02 17:30:00,51.5,47.8,30.20,ESE,111,3.0,9.0,87,0.00,CLR,,0.43,WeatherDisplay:10.37,2013-01-02 16:30:00,
2013-01-02 17:40:00,51.6,47.9,30.20,ESE,118,2.0,8.0,87,0.00,CLR,,0.43,WeatherDisplay:10.37,2013-01-02 16:40:00,
2013-01-02 17:50:00,51.6,47.9,30.21,ESE,122,2.0,8.0,87,0.00,CLR,,0.43,WeatherDisplay:10.37,2013-01-02 16:50:00,
2013-01-02 18:00:00,51.7,48.0,30.21,ESE,122,5.0,10.0,87,0.00,CLR,,0.43,WeatherDisplay:10.37,2013-01-02 17:00:00,
2013-01-02 18:10:00,51.4,48.0,30.22,SE,131,7.0,12.0,88,0.00,CLR,,0.43,WeatherDisplay:10.37,2013-01-02 17:10:00,
2013-01-02 18:20:00,51.2,48.1,30.22,ESE,104,7.0,12.0,89,0.01,RA,,0.43,WeatherDisplay:10.37,2013-01-02 17:20:00,
2013-01-02 18:30:00,50.9,47.8,30.22,ESE,104,2.0,12.0,89,0.00,RA,,0.43,WeatherDisplay:10.37,2013-01-02 17:30:00,
2013-01-02 18:40:00,50.8,47.7,30.23,ESE,109,6.0,10.0,89,0.00,RA,,0.43,WeatherDisplay:10.37,2013-01-02 17:40:00,
2013-01-02 18:50:00,50.8,47.4,30.23,East,92,5.0,9.0,88,0.00,CLR,,0.43,WeatherDisplay:10.37,2013-01-02 17:50:00,
2013-01-02 19:00:00,50.7,47.3,30.23,ESE,108,3.0,7.0,88,0.00,CLR,,0.43,WeatherDisplay:10.37,2013-01-02 18:00:00,
2013-01-02 19:10:00,51.0,46.9,30.24,ESE,112,3.0,10.0,86,0.00,CLR,,0.43,WeatherDisplay:10.37,2013-01-02 18:10:00,
2013-01-02 19:20:00,51.1,46.7,30.25,East,94,7.0,10.0,85,0.00,CLR,,0.43,WeatherDisplay:10.37,2013-01-02 18:20:00,
2013-01-02 19:30:00,51.3,46.9,30.25,East,90,5.0,10.0,85,0.00,CLR,,0.43,WeatherDisplay:10.37,2013-01-02 18:30:00,
2013-01-02 19:40:00,51.4,47.0,30.25,ENE,78,5.0,8.0,85,0.00,CLR,,0.43,WeatherDisplay:10.37,2013-01-02 18:40:00,
2013-01-02 19:50:00,51.5,46.5,30.25,East,89,7.0,10.0,83,0.00,CLR,,0.43,WeatherDisplay:10.37,2013-01-02 18:50:00,
2013-01-02 20:00:00,51.5,46.2,30.25,East,93,6.0,12.0,82,0.00,CLR,,0.43,WeatherDisplay:10.37,2013-01-02 19:00:00,
2013-01-02 20:10:00,51.7,45.7,30.25,East,87,5.0,8.0,80,0.00,CLR,,0.43,WeatherDisplay:10.37,2013-01-02 19:10:00,
2013-01-02 20:20:00,51.7,45.7,30.26,East,79,2.0,6.0,80,0.00,CLR,,0.43,WeatherDisplay:10.37,2013-01-02 19:20:00,
2013-01-02 20:30:00,51.9,45.2,30.26,East,83,1.0,5.0,78,0.00,CLR,,0.43,WeatherDisplay:10.37,2013-01-02 19:30:00,
2013-01-02 20:40:00,52.0,45.0,30.27,East,93,2.0,5.0,77,0.00,CLR,,0.43,WeatherDisplay:10.37,2013-01-02 19:40:00,
2013-01-02 20:50:00,52.0,44.7,30.27,ENE,76,2.0,6.0,76,0.00,CLR,,0.43,WeatherDisplay:10.37,2013-01-02 19:50:00,
2013-01-02 21:00:00,52.2,44.1,30.27,ESE,112,5.0,14.0,74,0.00,CLR,,0.43,WeatherDisplay:10.37,2013-01-02 20:00:00,
2013-01-02 21:10:00,52.2,44.5,30.28,ESE,104,3.0,12.0,75,0.00,CLR,,0.43,WeatherDisplay:10.37,2013-01-02 20:10:00,
2013-01-02 21:20:00,52.1,44.1,30.28,East,101,7.0,12.0,74,0.00,CLR,,0.43,WeatherDisplay:10.37,2013-01-02 20:20:00,
2013-01-02 21:30:00,52.4,44.0,30.28,East,99,9.0,13.0,73,0.00,CLR,,0.43,WeatherDisplay:10.37,2013-01-02 20:30:00,
2013-01-02 21:40:00,52.3,43.9,30.29,SE,126,7.0,12.0,73,0.00,CLR,,0.43,WeatherDisplay:10.37,2013-01-02 20:40:00,
2013-01-02 21:50:00,52.2,43.8,30.29,East,100,6.0,12.0,73,0.00,CLR,,0.43,WeatherDisplay:10.37,2013-01-02 20:50:00,
2013-01-02 22:00:00,52.1,43.7,30.29,East,98,6.0,9.0,73,0.00,CLR,,0.43,WeatherDisplay:10.37,2013-01-02 21:00:00,
2013-01-02 22:10:00,52.1,43.7,30.29,East,95,5.0,10.0,73,0.00,CLR,,0.43,WeatherDisplay:10.37,2013-01-02 21:10:00,
2013-01-02 22:20:00,52.4,43.6,30.29,East,100,6.0,10.0,72,0.00,CLR,,0.43,WeatherDisplay:10.37,2013-01-02 21:20:00,
2013-01-02 22:30:00,52.4,43.3,30.30,East,92,5.0,8.0,71,0.00,CLR,,0.43,WeatherDisplay:10.37,2013-01-02 21:30:00,
2013-01-02 22:40:00,52.9,43.0,30.30,East,97,3.0,7.0,69,0.00,CLR,,0.43,WeatherDisplay:10.37,2013-01-02 21:40:00,
2013-01-02 22:50:00,53.1,43.2,30.31,East,90,3.0,7.0,69,0.00,CLR,,0.43,WeatherDisplay:10.37,2013-01-02 21:50:00,
2013-01-02 23:00:00,53.4,43.1,30.31,ESE,117,2.0,6.0,68,0.00,CLR,,0.43,WeatherDisplay:10.37,2013-01-02 22:00:00,
2013-01-02 23:10:00,53.4,43.1,30.31,ESE,111,3.0,6.0,68,0.00,CLR,,0.43,WeatherDisplay:10.37,2013-01-02 22:10:00,
2013-01-02 23:20:00,53.2,43.7,30.32,ESE,111,2.0,6.0,70,0.00,CLR,,0.43,WeatherDisplay:10.37,2013-01-02 22:20:00,
2013-01-02 23:30:00,53.3,43.8,30.32,East,83,1.0,4.0,70,0.00,CLR,,0.43,WeatherDisplay:10.37,2013-01-02 22:30:00,
2013-01-02 23:40:00,53.6,44.0,30.32,East,90,2.0,4.0,70,0.00,CLR,,0.43,WeatherDisplay:10.37,2013-01-02 22:40:00,
2013-01-02 23:50:00,53.9,43.6,30.32,East,100,2.0,5.0,68,0.00,CLR,,0.43,WeatherDisplay:10.37,2013-01-02 22:50:00,